FW5487 Weather Reports


Display with metric or nautical units.
time (UTC)temp
F
wind
direction
speed
MPH
gust
MPH
rain 1hr
in
rain 24hr
in
rain mn
in
humidity
%
barometer
mb
20260505220703 48 40 5.0 8.0 0.02 0.21 0.21 96 1000.0
20260505215703 48 29 5.0 9.0 0.02 0.21 0.21 96 1000.0
20260505215204 49 19 5.0 8.0 0.01 0.20 0.20 95 1000.0
20260505214704 49 33 2.0 9.0 0.01 0.20 0.20 94 1000.0
20260505214204 49 38 4.0 9.0 0.01 0.20 0.20 94 1000.0
20260505213704 49 29 4.0 9.0 0.00 0.19 0.19 93 1000.0
20260505213204 49 30 5.0 9.0 0.00 0.19 0.19 92 1000.0
20260505212703 49 51 5.0 8.0 0.00 0.19 0.19 91 1000.0
20260505212204 50 23 2.0 6.0 0.00 0.19 0.19 91 1000.0
20260505211704 49 28 4.0 8.0 0.00 0.19 0.19 91 1000.0
20260505211203 49 5 4.0 8.0 0.00 0.19 0.19 91 1000.0
20260505210704 50 19 5.0 10.0 0.00 0.19 0.19 91 1000.0
20260505210203 50 36 3.0 8.0 0.00 0.19 0.19 89 1000.0
20260505205704 50 35 5.0 10.0 0.00 0.19 0.19 87 1000.0
20260505205204 50 83 3.0 9.0 0.00 0.19 0.19 87 1000.0
20260505204703 50 65 6.0 12.0 0.00 0.19 0.19 87 1000.0
20260505204204 50 47 6.0 12.0 0.00 0.19 0.19 86 1000.0
20260505203204 50 34 7.0 12.0 0.00 0.19 0.19 87 1000.0
20260505202203 50 35 5.0 10.0 0.00 0.19 0.19 92 1000.0
20260505201704 50 43 5.0 9.0 0.00 0.19 0.19 93 1000.0
20260505201204 49 38 7.0 12.0 0.00 0.19 0.19 93 1000.0
20260505200704 49 33 7.0 13.0 0.00 0.19 0.19 92 1000.0
20260505200204 50 42 5.0 12.0 0.00 0.19 0.19 92 1000.0
20260505195203 50 22 5.0 14.0 0.00 0.19 0.19 91 1000.0
20260505194704 50 15 7.0 12.0 0.00 0.19 0.19 90 1000.0
20260505194204 50 21 6.0 14.0 0.00 0.19 0.19 89 1000.0
20260505193703 50 32 8.0 13.0 0.00 0.19 0.19 87 1000.0
20260505193204 51 20 6.0 12.0 0.00 0.19 0.19 85 1000.0
20260505191704 51 18 6.0 12.0 0.00 0.19 0.19 83 1000.0
20260505191203 52 30 6.0 12.0 0.00 0.19 0.19 82 1000.0
20260505190704 52 32 5.0 13.0 0.00 0.19 0.19 82 1000.0
20260505185704 51 24 9.0 17.0 0.00 0.19 0.19 80 1000.0
20260505185203 52 21 9.0 14.0 0.00 0.19 0.19 80 1000.0
20260505184704 52 30 6.0 13.0 0.00 0.19 0.19 80 1000.0
20260505184204 52 30 7.0 16.0 0.00 0.19 0.19 79 1000.0
20260505183703 52 34 6.0 13.0 0.00 0.19 0.19 79 1000.0
20260505182704 52 20 9.0 14.0 0.00 0.19 0.19 80 1000.0
20260505182203 52 7 6.0 13.0 0.00 0.19 0.19 80 1000.0
20260505181703 52 21 9.0 16.0 0.00 0.19 0.19 80 1000.0
20260505181203 52 14 7.0 15.0 0.00 0.19 0.19 78 1000.0
20260505180703 53 25 8.0 15.0 0.00 0.19 0.19 80 1000.0
20260505180203 52 31 8.0 13.0 0.00 0.19 0.19 80 1000.0
20260505175703 53 30 6.0 14.0 0.00 0.19 0.19 82 1000.0
20260505175204 53 15 6.0 10.0 0.00 0.19 0.19 82 1000.0
20260505174704 53 12 5.0 10.0 0.00 0.19 0.19 83 1000.0
20260505174204 53 5 5.0 9.0 0.00 0.19 0.19 82 1000.0
20260505173704 53 346 4.0 8.0 0.00 0.19 0.19 81 1000.0
20260505173203 53 36 6.0 13.0 0.00 0.19 0.19 80 1000.0
20260505172203 53 37 5.0 10.0 0.00 0.19 0.19 83 1000.0
20260505170703 53 20 8.0 13.0 0.00 0.19 0.19 81 1000.0
20260505170203 53 32 5.0 10.0 0.00 0.19 0.19 82 1000.0
20260505165703 53 43 4.0 13.0 0.00 0.19 0.19 83 1000.0
20260505165204 53 27 5.0 10.0 0.00 0.19 0.19 83 1000.0
20260505164203 52 28 8.0 13.0 0.00 0.19 0.19 84 1000.0
20260505163704 52 26 5.0 12.0 0.00 0.19 0.19 84 1000.0
20260505163205 52 31 7.0 14.0 0.00 0.19 0.19 84 1000.0
20260505162703 52 27 6.0 14.0 0.00 0.19 0.19 85 1000.0
20260505162204 52 21 5.0 14.0 0.00 0.19 0.19 85 1000.0
20260505161703 52 38 5.0 13.0 0.00 0.19 0.19 85 1000.0
20260505160204 53 21 7.0 12.0 0.00 0.19 0.19 83 1000.0
20260505153204 54 4 6.0 13.0 0.00 0.19 0.19 80 1000.0
20260505152703 54 10 5.0 14.0 0.00 0.19 0.19 80 1000.0
20260505152204 55 9 5.0 10.0 0.00 0.19 0.19 80 1000.0
20260505151704 55 13 5.0 12.0 0.00 0.19 0.19 79 1000.0
20260505151204 55 9 6.0 12.0 0.00 0.19 0.19 78 1000.0
20260505150703 55 54 5.0 12.0 0.00 0.19 0.19 78 1000.0
20260505150203 55 34 7.0 14.0 0.00 0.19 0.19 78 1000.0
20260505140204 53 43 9.0 16.0 0.00 0.19 0.19 80 1000.0
20260505130203 51 36 9.0 17.0 0.00 0.19 0.19 86 1000.0
20260505124704 51 23 10.0 18.0 0.00 0.19 0.19 87 1000.0
20260505124204 51 40 4.0 15.0 0.00 0.19 0.19 90 1000.0
20260505123704 51 41 6.0 13.0 0.00 0.19 0.19 90 1000.0
20260505123204 51 36 8.0 16.0 0.00 0.19 0.19 90 1000.0
20260505122704 51 17 6.0 14.0 0.00 0.19 0.19 92 1000.0
20260505122204 51 33 9.0 15.0 0.00 0.19 0.19 92 1000.0
20260505121704 50 33 9.0 15.0 0.00 0.19 0.19 92 1000.0
20260505121203 51 19 6.0 14.0 0.00 0.19 0.19 92 1000.0
20260505120204 51 25 6.0 14.0 0.00 0.19 0.19 93 1000.0
20260505115704 51 33 7.0 15.0 0.00 0.19 0.19 93 1000.0
20260505114703 51 17 5.0 9.0 0.00 0.19 0.19 94 1000.0
20260505114203 51 26 6.0 12.0 0.00 0.19 0.19 94 1000.0
20260505112703 51 22 5.0 9.0 0.00 0.19 0.19 95 1000.0
20260505111703 52 15 4.0 6.0 0.00 0.19 0.19 95 1000.0
20260505111204 51 40 5.0 10.0 0.01 0.19 0.19 95 1000.0
20260505110704 51 7 5.0 12.0 0.01 0.19 0.19 95 1000.0
20260505110203 51 95 3.0 9.0 0.02 0.19 0.19 95 1000.0
20260505102204 52 22 12.0 25.0 0.19 0.19 0.19 95 1000.0
20260505101704 52 28 13.0 23.0 0.19 0.19 0.19 95 1000.0
20260505101203 53 18 9.0 18.0 0.18 0.18 0.18 95 1000.0
20260505095704 53 358 9.0 17.0 0.16 0.16 0.16 94 1000.0
20260505095203 54 338 7.0 21.0 0.15 0.15 0.15 93 1000.0
20260505094704 54 344 8.0 17.0 0.14 0.14 0.14 92 1000.0
20260505093703 55 343 13.0 24.0 0.10 0.10 0.10 89 1000.0
20260505093203 57 354 10.0 21.0 0.07 0.07 0.07 86 1000.0
20260505092703 60 333 12.0 29.0 0.02 0.02 0.02 67 1000.0
20260505092204 63 329 13.0 24.0 0.00 0.00 0.00 65 1000.0
20260505091703 67 352 13.0 28.0 0.00 0.00 0.00 66 1000.0
20260505091204 69 0 3.0 8.0 0.00 0.00 0.00 71 1000.0
20260505090704 68 8 4.0 7.0 0.00 0.00 0.00 70 1000.0
20260505085204 69 30 3.0 5.0 0.00 0.00 0.00 68 1000.0
20260505084703 69 29 3.0 6.0 0.00 0.00 0.00 68 1000.0
20260505084203 69 328 2.0 6.0 0.00 0.00 0.00 67 1000.0
20260505083704 68 228 6.0 9.0 0.00 0.00 0.00 67 1000.0
20260505083204 68 212 6.0 9.0 0.00 0.00 0.00 67 1000.0
20260505082703 68 203 7.0 12.0 0.00 0.00 0.00 67 1000.0
20260505082203 68 215 7.0 9.0 0.00 0.00 0.00 67 1000.0
20260505081704 68 213 7.0 12.0 0.00 0.00 0.00 67 1000.0
20260505080704 68 214 7.0 13.0 0.00 0.00 0.00 67 1000.0
20260505080204 68 212 8.0 10.0 0.00 0.00 0.00 67 1000.0
20260505075704 68 204 8.0 13.0 0.00 0.00 0.00 66 1000.0
20260505075204 68 205 11.0 14.0 0.00 0.00 0.00 66 1000.0
20260505074704 68 202 9.0 13.0 0.00 0.00 0.00 66 1000.0
20260505074204 69 196 8.0 10.0 0.00 0.00 0.00 66 1000.0
20260505073704 68 211 7.0 12.0 0.00 0.00 0.00 66 1000.0
20260505072704 68 193 6.0 12.0 0.00 0.00 0.00 67 1000.0
20260505072204 68 196 7.0 10.0 0.00 0.00 0.00 68 1000.0
20260505071203 68 193 5.0 8.0 0.00 0.00 0.00 69 1000.0
20260505070704 68 169 3.0 6.0 0.00 0.00 0.00 68 1000.0
20260505070204 69 200 4.0 7.0 0.00 0.00 0.00 67 1000.0
20260505065703 69 170 3.0 6.0 0.00 0.00 0.00 66 1000.0
20260505064704 69 204 3.0 6.0 0.00 0.00 0.00 66 1000.0
20260505064203 69 211 3.0 7.0 0.00 0.00 0.00 66 1000.0
20260505063704 69 217 5.0 9.0 0.00 0.00 0.00 65 1000.0
20260505063204 69 204 6.0 9.0 0.00 0.00 0.00 66 1000.0
20260505062203 69 207 5.0 7.0 0.00 0.00 0.00 67 1000.0
20260505061704 69 195 3.0 6.0 0.00 0.00 0.00 67 1000.0
20260505061204 69 200 2.0 5.0 0.00 0.00 0.00 68 1000.0
20260505060704 69 180 2.0 5.0 0.00 0.00 0.00 68 1000.0
20260505060203 69 182 3.0 5.0 0.00 0.00 0.00 67 1000.0
20260505055704 69 168 3.0 5.0 0.00 0.00 0.00 65 1000.0
20260505055203 70 197 3.0 5.0 0.00 0.00 0.00 64 1000.0
20260505054204 71 196 3.0 5.0 0.00 0.00 0.00 62 1000.0
20260505053704 70 227 6.0 8.0 0.00 0.00 0.00 62 1000.0
20260505052703 70 216 9.0 14.0 0.00 0.00 0.00 62 1000.0
20260505052204 70 200 8.0 13.0 0.00 0.00 0.00 62 1000.0
20260505051704 70 207 6.0 8.0 0.00 0.00 0.00 62 1000.0
20260505051204 71 201 6.0 9.0 0.00 0.00 0.00 61 1000.0
20260505050704 71 202 6.0 9.0 0.00 0.00 0.00 61 1000.0
20260505041704 73 198 7.0 9.0 0.00 0.00 0.00 57 1000.0
20260505040203 73 215 7.0 10.0 0.00 0.00 0.00 56 1000.0
20260505035703 73 210 7.0 10.0 0.00 0.00 0.00 56 1000.0
20260505033704 74 221 5.0 8.0 0.00 0.00 0.00 55 1000.0
20260505033203 74 232 5.0 9.0 0.00 0.00 0.00 54 1000.0
20260505032703 74 223 6.0 10.0 0.00 0.00 0.00 54 1000.0
20260505032204 74 220 7.0 10.0 0.00 0.00 0.00 54 1000.0
20260505031704 74 220 7.0 9.0 0.00 0.00 0.00 54 1000.0
20260505031203 75 213 8.0 10.0 0.00 0.00 0.00 54 1000.0
20260505030703 75 224 7.0 10.0 0.00 0.00 0.00 53 1000.0
20260505030203 75 217 6.0 10.0 0.00 0.00 0.00 52 1000.0
20260505025704 75 235 6.0 8.0 0.00 0.00 0.00 52 1000.0
20260505025204 76 227 6.0 7.0 0.00 0.00 0.00 52 1000.0
20260505024703 76 221 7.0 14.0 0.00 0.00 0.00 52 1000.0
20260505024203 76 229 6.0 12.0 0.00 0.00 0.00 51 1000.0
20260505023703 76 223 6.0 12.0 0.00 0.00 0.00 51 1000.0
20260505022704 76 225 8.0 16.0 0.00 0.00 0.00 50 1000.0
20260505022203 76 213 9.0 14.0 0.00 0.00 0.00 50 1000.0
20260505021704 76 212 10.0 17.0 0.00 0.00 0.00 50 1000.0
20260505021203 76 228 9.0 15.0 0.00 0.00 0.00 50 1000.0
20260505020704 76 214 9.0 15.0 0.00 0.00 0.00 51 1000.0
20260505020204 77 211 10.0 14.0 0.00 0.00 0.00 51 1000.0
20260505015704 77 216 7.0 10.0 0.00 0.00 0.00 51 1000.0
20260505015203 77 214 7.0 10.0 0.00 0.00 0.00 51 1000.0
20260505014704 77 226 6.0 9.0 0.00 0.00 0.00 51 1000.0
20260505013704 77 214 6.0 8.0 0.00 0.00 0.00 51 1000.0
20260505013203 77 217 5.0 8.0 0.00 0.00 0.00 50 1000.0
20260505012703 78 226 7.0 10.0 0.00 0.00 0.00 50 1000.0
20260505012203 78 228 5.0 9.0 0.00 0.00 0.00 50 1000.0
20260505011704 78 242 5.0 9.0 0.00 0.00 0.00 49 1000.0
20260505011203 78 235 5.0 9.0 0.00 0.00 0.00 49 1000.0
20260505010704 78 227 7.0 12.0 0.00 0.00 0.00 49 1000.0
20260505010204 78 229 7.0 14.0 0.00 0.00 0.00 48 1000.0
20260505005704 78 223 7.0 13.0 0.00 0.00 0.00 48 1000.0
20260505004704 78 223 8.0 14.0 0.00 0.00 0.00 48 1000.0
20260505004203 78 223 10.0 17.0 0.00 0.00 0.00 47 1000.0
20260505003703 79 214 7.0 17.0 0.00 0.00 0.00 48 1000.0
20260505002704 79 211 12.0 17.0 0.00 0.00 0.00 47 1000.0
20260505002203 79 209 13.0 20.0 0.00 0.00 0.00 47 1000.0
20260505001703 79 206 10.0 16.0 0.00 0.00 0.00 48 1000.0
20260505001204 79 220 9.0 13.0 0.00 0.00 0.00 47 1000.0
20260505000703 79 215 12.0 20.0 0.00 0.00 0.00 47 1000.0
20260505000204 79 216 8.0 15.0 0.00 0.00 0.00 47 1000.0
20260504235704 79 210 12.0 22.0 0.00 0.00 0.00 47 1000.0
20260504235203 79 217 10.0 15.0 0.00 0.00 0.00 47 1000.0
20260504234704 80 207 9.0 16.0 0.00 0.00 0.00 46 1000.0
20260504234204 80 206 11.0 20.0 0.00 0.00 0.00 46 1000.0
20260504233703 80 219 13.0 17.0 0.00 0.00 0.00 46 1000.0
20260504233203 80 207 13.0 21.0 0.00 0.00 0.00 46 1000.0
20260504232704 80 219 12.0 18.0 0.00 0.00 0.00 45 1000.0
20260504232204 80 215 14.0 21.0 0.00 0.00 0.00 45 1000.0
20260504231704 80 216 14.0 21.0 0.00 0.00 0.00 45 1000.0
20260504231204 80 227 13.0 20.0 0.00 0.00 0.00 45 1000.0
20260504230204 81 222 9.0 23.0 0.00 0.00 0.00 45 1000.0
20260504225703 81 214 14.0 25.0 0.00 0.00 0.00 44 1000.0
20260504225203 81 211 14.0 32.0 0.00 0.00 0.00 43 1000.0
20260504224704 82 208 10.0 24.0 0.00 0.00 0.00 43 1000.0
20260504224203 81 217 14.0 21.0 0.00 0.00 0.00 43 1000.0
20260504223704 81 219 12.0 20.0 0.00 0.00 0.00 43 1000.0
20260504223203 81 218 14.0 30.0 0.00 0.00 0.00 42 1000.0
20260504222703 81 216 16.0 29.0 0.00 0.00 0.00 42 1000.0
20260504222203 82 222 13.0 23.0 0.00 0.00 0.00 43 1000.0
20260504221703 82 211 15.0 22.0 0.00 0.00 0.00 42 1000.0
20260504221204 81 205 17.0 33.0 0.00 0.00 0.00 42 1000.0